Regional Weather Roundup
Issued by NWS

Home | Current Version | Previous Version | Graphics & Text | Print | Product List | Glossary On
Versions: 1 2 3 4 5 6 7 8 9 10 11 12 13 14 15 16 17 18 19 20 21 22 23 24 25 26 27 28 29 30 31 32 33 34 35 36 37 38 39 40 41 42 43 44 45 46 47 48 49 50
000
ASUS43 KFSD 180802
RWRSD

WEATHER ROUNDUP FOR SOUTH DAKOTA
NATIONAL WEATHER SERVICE SIOUX FALLS SD
300 AM CDT WED OCT 18 2017

NOTE: "FAIR" INDICATES FEW OR NO CLOUDS BELOW 12,000 FEET WITH NO
SIGNIFICANT WEATHER AND/OR OBSTRUCTIONS TO VISIBILITY.


SDZ001>005-009-010-012>017-180900-
NORTHWEST AND NORTH CENTRAL SOUTH DAKOTA

CITY           SKY/WX    TMP DP  RH WIND       PRES   REMARKS
BUFFALO          N/A     57  25  29 W14       29.69R
FAITH            N/A     57  25  29 SW13      29.71R
MOBRIDGE       CLOUDY    50  44  80 SE8       29.65R
$$

SDZ012>016-024>037-041>051-057-063-072>074-180900-
SOUTHWEST AND SOUTH CENTRAL SOUTH DAKOTA

CITY           SKY/WX    TMP DP  RH WIND       PRES   REMARKS
RAPID CTY ARPT CLOUDY    53  26  35 NE6       29.74S
PIERRE         CLOUDY    52  31  44 SW10      29.68F
CUSTER         CLOUDY    54  14  20 W6        29.93S
ELLSWORTH AFB  CLOUDY    60  21  22 NW12      29.75R
PHILIP         CLOUDY    49  31  49 W10       29.71F
PINE RIDGE     CLOUDY    48  26  42 W5        29.83F
SPEARFISH      FAIR      66  19  16 W7        29.81R
WINNER         FAIR      57  31  37 S17       29.75F
$$

SDZ004>011-016>023-039-040-180900-
NORTHEAST SOUTH DAKOTA

CITY           SKY/WX    TMP DP  RH WIND       PRES   REMARKS
ABERDEEN       CLOUDY    48  41  76 S7        29.69S
WATERTOWN      CLOUDY    47  42  83 S7        29.74F
BROOKINGS      CLEAR     52  44  74 S12       29.79F
SISSETON         N/A     62  40  44 SW20      29.68F
$$

SDZ017-020-022-023-036>040-048>070-180900-
SOUTHEAST SOUTH DAKOTA

CITY           SKY/WX    TMP DP  RH WIND       PRES   REMARKS
SIOUX FALLS    CLEAR     56  46  69 S12       29.82F
HURON          CLEAR     49  40  71 S8        29.72F
CHAMBERLAIN    CLEAR     52  36  53 SW5       29.73S
MITCHELL       CLEAR     51  42  71 S10       29.76F
YANKTON        CLEAR     58  44  60 S7        29.83F
$$

ABBREVIATIONS USED IN REMARKS
   TC - TEMPERATURE IN CELSIUS
  WCI - WIND CHILL INDEX
   HX - HEAT INDEX
  VSB - VISIBILITY





USA.gov is the U.S. government's official web portal to all federal, state and local government web resources and services.